GW3437 Weather Reports


Display with metric or nautical units.
time (UTC)temp
F
wind
direction
speed
MPH
gust
MPH
rain 1hr
in
rain 24hr
in
rain mn
in
humidity
%
barometer
mb
20260904034705 84 350 0.0 2.0 0.00 0.00 0.00 66 1014.7
20260904034201 84 174 6.0 7.0 0.00 0.00 0.00 65 1014.4
20260904033656 84 160 3.0 3.0 0.00 0.00 0.00 65 1014.3
20260904033153 84 152 2.0 4.0 0.00 0.00 0.00 65 1014.3
20260904032649 84 176 1.0 2.0 0.00 0.00 0.00 65 1014.2
20260904032148 85 45 0.0 2.0 0.00 0.00 0.00 64 1014.3
20260904031642 85 170 2.0 6.0 0.00 0.00 0.00 64 1014.6
20260904031138 85 119 2.0 4.0 0.00 0.00 0.00 64 1014.3
20260904030633 85 195 1.0 2.0 0.00 0.00 0.00 63 1014.3
20260904030128 85 177 0.0 4.0 0.00 0.00 0.00 63 1014.3
20260904025624 85 102 2.0 4.0 0.00 0.00 0.00 63 1014.1
20260904025119 85 105 1.0 1.0 0.00 0.00 0.00 63 1014.1
20260904024614 86 64 1.0 2.0 0.00 0.00 0.00 62 1014.1
20260904024109 86 178 1.0 1.0 0.00 0.00 0.00 62 1014.2
20260904023606 86 35 1.0 7.0 0.00 0.00 0.00 62 1013.9
20260904023101 86 212 2.0 4.0 0.00 0.00 0.00 62 1013.9
20260904022556 86 195 1.0 2.0 0.00 0.00 0.00 61 1013.8
20260904022053 86 87 1.0 3.0 0.00 0.00 0.00 61 1013.7
20260904021548 87 191 2.0 2.0 0.00 0.00 0.00 60 1013.7
20260904021043 87 134 1.0 2.0 0.00 0.00 0.00 60 1013.7
20260904020538 87 182 2.0 6.0 0.00 0.00 0.00 60 1013.6
20260904020033 87 130 2.0 3.0 0.00 0.00 0.00 59 1013.5
20260904015527 87 138 1.0 4.0 0.00 0.00 0.00 59 1013.3
20260904015026 87 64 2.0 3.0 0.00 0.00 0.00 58 1013.4
20260904014520 87 204 1.0 3.0 0.00 0.00 0.00 58 1013.4
20260904014016 88 47 2.0 4.0 0.00 0.00 0.00 58 1013.1
20260904013512 88 111 0.0 4.0 0.00 0.00 0.00 57 1013.0
20260904013009 88 135 2.0 6.0 0.00 0.00 0.00 57 1012.9
20260904012508 88 132 1.0 8.0 0.00 0.00 0.00 57 1013.2
20260904012003 88 143 1.0 6.0 0.00 0.00 0.00 57 1013.0
20260904011457 89 144 1.0 3.0 0.00 0.00 0.00 57 1012.8
20260904010952 89 141 1.0 2.0 0.00 0.00 0.00 57 1012.7
20260904010449 89 39 2.0 9.0 0.00 0.00 0.00 56 1012.7
20260904005948 89 267 2.0 4.0 0.00 0.00 0.00 55 1012.6
20260904005444 90 74 3.0 6.0 0.00 0.00 0.00 55 1012.4
20260904004939 90 69 1.0 3.0 0.00 0.00 0.00 54 1012.3
20260904004436 90 132 0.0 4.0 0.00 0.00 0.00 54 1012.4
20260904003936 90 226 1.0 3.0 0.00 0.00 0.00 53 1012.4
20260904003432 91 161 1.0 4.0 0.00 0.00 0.00 53 1012.4
20260904002926 91 140 1.0 6.0 0.00 0.00 0.00 52 1012.5
20260904002423 92 170 1.0 7.0 0.00 0.00 0.00 51 1012.1
20260904001922 93 172 2.0 8.0 0.00 0.00 0.00 51 1012.1
20260904001418 93 201 4.0 10.0 0.00 0.00 0.00 50 1012.2
20260904000912 93 137 1.0 3.0 0.00 0.00 0.00 50 1012.2
20260904000412 93 51 1.0 7.0 0.00 0.00 0.00 50 1012.3
20260903235907 94 189 3.0 4.0 0.00 0.00 0.00 49 1012.2
20260903235403 93 88 1.0 4.0 0.00 0.00 0.00 49 1012.3
20260903234902 93 179 2.0 7.0 0.00 0.00 0.00 50 1012.3
20260903234358 94 198 8.0 10.0 0.00 0.00 0.00 49 1012.4
20260903233854 94 212 6.0 9.0 0.00 0.00 0.00 49 1012.3
20260903233350 94 256 1.0 3.0 0.00 0.00 0.00 48 1012.2
20260903232849 95 156 2.0 4.0 0.00 0.00 0.00 48 1012.3
20260903232345 94 21 2.0 4.0 0.00 0.00 0.00 48 1012.1
20260903231844 94 55 2.0 3.0 0.00 0.00 0.00 48 1012.2
20260903231339 95 43 2.0 6.0 0.00 0.00 0.00 48 1012.0
20260903230835 95 189 3.0 11.0 0.00 0.00 0.00 47 1012.0
20260903230330 95 146 2.0 6.0 0.00 0.00 0.00 48 1011.9
20260903225826 96 71 2.0 3.0 0.00 0.00 0.00 46 1011.8
20260903225322 96 147 1.0 11.0 0.00 0.00 0.00 45 1011.8
20260903224818 95 195 3.0 6.0 0.00 0.00 0.00 46 1011.9
20260903224314 95 239 3.0 10.0 0.00 0.00 0.00 46 1011.9
20260903223810 96 114 4.0 8.0 0.00 0.00 0.00 45 1011.9
20260903223309 97 349 1.0 3.0 0.00 0.00 0.00 44 1012.0
20260903222804 97 182 2.0 7.0 0.00 0.00 0.00 43 1012.0
20260903222305 97 64 1.0 7.0 0.00 0.00 0.00 44 1012.1
20260903221757 97 264 2.0 2.0 0.00 0.00 0.00 44 1012.3
20260903221256 97 44 2.0 6.0 0.00 0.00 0.00 44 1012.0
20260903220754 98 104 3.0 9.0 0.00 0.00 0.00 44 1011.9
20260903220249 97 25 1.0 4.0 0.00 0.00 0.00 44 1012.0
20260903215747 97 13 2.0 3.0 0.00 0.00 0.00 45 1012.2
20260903215244 97 195 4.0 8.0 0.00 0.00 0.00 45 1012.3
20260903214742 98 148 5.0 8.0 0.00 0.00 0.00 44 1012.6
20260903214239 97 179 3.0 8.0 0.00 0.00 0.00 45 1012.2
20260903213732 97 217 1.0 10.0 0.00 0.00 0.00 45 1012.3
20260903213228 98 51 2.0 4.0 0.00 0.00 0.00 44 1012.4
20260903212724 98 175 2.0 9.0 0.00 0.00 0.00 45 1012.4
20260903212220 99 119 2.0 7.0 0.00 0.00 0.00 44 1012.2
20260903211713 98 19 2.0 3.0 0.00 0.00 0.00 44 1012.4
20260903211210 98 182 1.0 3.0 0.00 0.00 0.00 44 1012.4
20260903210706 98 95 2.0 3.0 0.00 0.00 0.00 44 1012.5
20260903210201 98 208 3.0 6.0 0.00 0.00 0.00 44 1012.5
20260903205701 98 194 3.0 8.0 0.00 0.00 0.00 44 1012.6
20260903205200 98 157 0.0 3.0 0.00 0.00 0.00 43 1012.5
20260903204655 97 214 4.0 7.0 0.00 0.00 0.00 44 1012.6
20260903204152 98 53 3.0 7.0 0.00 0.00 0.00 44 1012.5
20260903203647 98 208 4.0 7.0 0.00 0.00 0.00 44 1012.7
20260903203142 99 195 2.0 7.0 0.00 0.00 0.00 43 1012.8
20260903202637 98 64 1.0 4.0 0.00 0.00 0.00 44 1012.8
20260903202132 99 83 1.0 2.0 0.00 0.00 0.00 42 1012.9
20260903201626 99 193 3.0 3.0 0.00 0.00 0.00 43 1012.9
20260903201126 99 189 2.0 9.0 0.00 0.00 0.00 44 1013.0
20260903200621 98 174 6.0 10.0 0.00 0.00 0.00 44 1012.9
20260903200116 100 224 4.0 4.0 0.00 0.00 0.00 42 1013.0
20260903195612 99 206 1.0 4.0 0.00 0.00 0.00 43 1013.2
20260903195107 100 110 1.0 7.0 0.00 0.00 0.00 44 1013.1
20260903194602 98 150 2.0 3.0 0.00 0.00 0.00 43 1013.1
20260903194057 98 92 2.0 4.0 0.00 0.00 0.00 46 1013.2
20260903193553 99 101 1.0 9.0 0.00 0.00 0.00 43 1013.2
20260903193048 98 220 1.0 3.0 0.00 0.00 0.00 42 1013.2
20260903192539 97 266 0.0 3.0 0.00 0.00 0.00 46 1013.1
20260903192034 97 185 2.0 9.0 0.00 0.00 0.00 45 1013.2
20260903191531 99 206 3.0 4.0 0.00 0.00 0.00 44 1013.3
20260903191030 98 205 1.0 4.0 0.00 0.00 0.00 44 1013.3
20260903190525 98 191 6.0 7.0 0.00 0.00 0.00 43 1013.6
20260903190024 96 152 6.0 7.0 0.00 0.00 0.00 44 1013.5
20260903185520 97 181 4.0 9.0 0.00 0.00 0.00 45 1013.6
20260903185015 96 26 1.0 11.0 0.00 0.00 0.00 46 1013.8
20260903184511 97 15 2.0 8.0 0.00 0.00 0.00 44 1013.8
20260903184006 97 164 2.0 9.0 0.00 0.00 0.00 47 1013.9
20260903183505 97 182 2.0 6.0 0.00 0.00 0.00 47 1013.9
20260903183000 96 35 4.0 4.0 0.00 0.00 0.00 48 1014.0
20260903182458 97 133 1.0 4.0 0.00 0.00 0.00 46 1014.3
20260903181954 97 99 1.0 4.0 0.00 0.00 0.00 47 1014.2
20260903181447 96 243 3.0 7.0 0.00 0.00 0.00 46 1014.2
20260903180942 96 73 2.0 2.0 0.00 0.00 0.00 46 1014.2
20260903180437 95 188 4.0 8.0 0.00 0.00 0.00 48 1014.3
20260903175936 95 99 2.0 7.0 0.00 0.00 0.00 49 1014.2
20260903175431 95 151 2.0 9.0 0.00 0.00 0.00 49 1014.6
20260903174925 96 183 5.0 9.0 0.00 0.00 0.00 46 1014.4
20260903174420 96 54 4.0 4.0 0.00 0.00 0.00 48 1014.7
20260903173920 95 115 1.0 3.0 0.00 0.00 0.00 49 1014.7
20260903173415 95 158 2.0 4.0 0.00 0.00 0.00 48 1014.9
20260903172910 95 119 0.0 3.0 0.00 0.00 0.00 49 1014.8
20260903172405 94 147 2.0 3.0 0.00 0.00 0.00 49 1014.9
20260903171901 95 80 3.0 4.0 0.00 0.00 0.00 49 1015.0
20260903171355 94 119 1.0 7.0 0.00 0.00 0.00 50 1015.0
20260903170855 92 147 1.0 7.0 0.00 0.00 0.00 52 1015.0
20260903170350 92 78 2.0 8.0 0.00 0.00 0.00 51 1015.1
20260903165848 93 229 1.0 2.0 0.00 0.00 0.00 51 1015.1
20260903165343 93 134 3.0 6.0 0.00 0.00 0.00 51 1015.1
20260903164838 91 207 4.0 8.0 0.00 0.00 0.00 55 1015.1
20260903164333 91 125 3.0 7.0 0.00 0.00 0.00 55 1015.1
20260903163832 91 227 3.0 4.0 0.00 0.00 0.00 55 1015.2
20260903163329 91 171 2.0 4.0 0.00 0.00 0.00 55 1015.2
20260903162825 91 185 4.0 8.0 0.00 0.00 0.00 55 1015.3
20260903162321 92 45 1.0 3.0 0.00 0.00 0.00 53 1015.3
20260903161817 91 219 1.0 6.0 0.00 0.00 0.00 55 1015.2
20260903161312 90 176 4.0 7.0 0.00 0.00 0.00 57 1015.3
20260903160808 89 118 2.0 4.0 0.00 0.00 0.00 59 1015.2
20260903160306 88 145 2.0 7.0 0.00 0.00 0.00 60 1015.2
20260903155805 88 59 1.0 3.0 0.00 0.00 0.00 59 1015.4
20260903155301 88 194 3.0 4.0 0.00 0.00 0.00 60 1015.4
20260903154755 87 313 1.0 4.0 0.00 0.00 0.00 62 1015.5
20260903154252 86 178 1.0 3.0 0.00 0.00 0.00 63 1015.4
20260903153747 87 187 3.0 7.0 0.00 0.00 0.00 62 1015.3
20260903153243 87 176 1.0 8.0 0.00 0.00 0.00 63 1015.4
20260903152739 86 171 2.0 3.0 0.00 0.00 0.00 64 1015.4
20260903152235 85 164 3.0 3.0 0.00 0.00 0.00 67 1015.5
20260903151734 84 122 1.0 3.0 0.00 0.00 0.00 68 1015.6
20260903151230 84 97 2.0 3.0 0.00 0.00 0.00 67 1015.6
20260903150725 84 187 4.0 8.0 0.00 0.00 0.00 67 1015.7
20260903150220 84 187 2.0 4.0 0.00 0.00 0.00 68 1015.6
20260903145720 83 125 2.0 6.0 0.00 0.00 0.00 69 1015.6
20260903145215 83 192 3.0 6.0 0.00 0.00 0.00 70 1015.8
20260903144714 82 193 4.0 8.0 0.00 0.00 0.00 71 1015.8
20260903144210 81 189 2.0 7.0 0.00 0.00 0.00 72 1015.8
20260903143705 82 179 2.0 6.0 0.00 0.00 0.00 72 1015.9
20260903143201 81 217 5.0 7.0 0.00 0.00 0.00 73 1015.8
20260903142656 81 180 3.0 4.0 0.00 0.00 0.00 72 1015.7
20260903142153 80 78 1.0 3.0 0.00 0.00 0.00 74 1016.0
20260903141648 81 238 2.0 3.0 0.00 0.00 0.00 73 1015.9
20260903141142 81 193 4.0 7.0 0.00 0.00 0.00 73 1016.2
20260903140639 81 137 2.0 3.0 0.00 0.00 0.00 73 1016.2
20260903140134 81 201 6.0 11.0 0.00 0.00 0.00 73 1016.0
20260903135630 80 120 1.0 3.0 0.00 0.00 0.00 73 1016.1
20260903135124 80 216 1.0 4.0 0.00 0.00 0.00 74 1016.1
20260903134623 80 181 1.0 2.0 0.00 0.00 0.00 73 1016.2
20260903134120 80 145 2.0 3.0 0.00 0.00 0.00 73 1016.2
20260903133617 79 176 3.0 8.0 0.00 0.00 0.00 75 1016.3
20260903133113 80 136 1.0 8.0 0.00 0.00 0.00 74 1016.3
20260903132608 80 155 2.0 3.0 0.00 0.00 0.00 74 1016.1
20260903132107 80 166 2.0 4.0 0.00 0.00 0.00 74 1016.2
20260903131602 78 145 3.0 7.0 0.00 0.00 0.00 75 1016.2
20260903131101 78 198 2.0 7.0 0.00 0.00 0.00 76 1016.0
20260903130556 79 242 4.0 6.0 0.00 0.00 0.00 75 1016.0
20260903130051 78 147 1.0 1.0 0.00 0.00 0.00 76 1015.9
20260903125549 78 118 1.0 8.0 0.00 0.00 0.00 77 1015.8
20260903125044 78 122 3.0 4.0 0.00 0.00 0.00 77 1015.8
20260903124539 77 201 2.0 4.0 0.00 0.00 0.00 77 1016.0
20260903124038 77 175 3.0 4.0 0.00 0.00 0.00 77 1016.0
20260903123538 77 122 5.0 7.0 0.00 0.00 0.00 77 1015.9
20260903123036 77 142 0.0 9.0 0.00 0.00 0.00 77 1015.8
20260903122531 77 165 1.0 3.0 0.00 0.00 0.00 77 1015.4
20260903122031 77 131 1.0 3.0 0.00 0.00 0.00 77 1015.6
20260903121525 77 187 2.0 3.0 0.00 0.00 0.00 77 1015.5
20260903121022 77 255 2.0 2.0 0.00 0.00 0.00 77 1015.3
20260903120520 77 125 2.0 2.0 0.00 0.00 0.00 77 1015.4
20260903120015 77 198 5.0 7.0 0.00 0.00 0.00 77 1015.6
20260903115513 77 150 1.0 4.0 0.00 0.00 0.00 76 1015.3
20260903115008 77 202 3.0 7.0 0.00 0.00 0.00 76 1015.4
20260903114503 77 199 5.0 7.0 0.00 0.00 0.00 76 1015.4
20260903113959 78 202 1.0 3.0 0.00 0.00 0.00 75 1015.3
20260903113454 78 209 1.0 4.0 0.00 0.00 0.00 75 1015.2
20260903112949 78 162 0.0 6.0 0.00 0.00 0.00 75 1015.1
20260903112445 78 170 5.0 6.0 0.00 0.00 0.00 75 1015.2
20260903111944 78 165 1.0 2.0 0.00 0.00 0.00 75 1015.0
20260903111439 78 161 4.0 6.0 0.00 0.00 0.00 75 1015.1
20260903110935 78 192 2.0 6.0 0.00 0.00 0.00 75 1015.2
20260903110431 78 219 1.0 4.0 0.00 0.00 0.00 74 1014.8
20260903105925 78 198 3.0 6.0 0.00 0.00 0.00 74 1015.0
20260903105421 78 129 0.0 9.0 0.00 0.00 0.00 73 1015.2
20260903104920 79 174 3.0 6.0 0.00 0.00 0.00 73 1015.1
20260903104414 79 189 2.0 6.0 0.00 0.00 0.00 73 1015.0
20260903103911 79 207 2.0 4.0 0.00 0.00 0.00 72 1015.1
20260903103407 79 158 4.0 7.0 0.00 0.00 0.00 72 1015.2
20260903102902 79 192 6.0 7.0 0.00 0.00 0.00 72 1014.9
20260903102357 79 154 2.0 3.0 0.00 0.00 0.00 72 1014.8
20260903101856 79 56 1.0 3.0 0.00 0.00 0.00 72 1014.8
20260903101346 79 200 4.0 8.0 0.00 0.00 0.00 71 1014.9
20260903100841 79 238 2.0 3.0 0.00 0.00 0.00 71 1014.9
20260903100336 80 74 1.0 4.0 0.00 0.00 0.00 71 1015.0
20260903095832 80 213 2.0 3.0 0.00 0.00 0.00 71 1015.0
20260903095327 80 127 0.0 2.0 0.00 0.00 0.00 70 1014.8
20260903094822 80 123 0.0 4.0 0.00 0.00 0.00 70 1014.7
20260903094317 80 172 2.0 2.0 0.00 0.00 0.00 70 1014.9
20260903093813 80 132 1.0 1.0 0.00 0.00 0.00 70 1014.8
20260903093307 80 181 2.0 3.0 0.00 0.00 0.00 69 1014.8
20260903092802 80 280 3.0 4.0 0.00 0.00 0.00 69 1015.0
20260903092257 80 86 0.0 2.0 0.00 0.00 0.00 69 1014.9
20260903091755 81 176 2.0 6.0 0.00 0.00 0.00 68 1015.0
20260903091244 81 202 2.0 6.0 0.00 0.00 0.00 68 1014.9
20260903090740 81 207 1.0 3.0 0.00 0.00 0.00 68 1014.8
20260903090238 81 216 2.0 7.0 0.00 0.00 0.00 67 1015.0
20260903085738 81 143 0.0 2.0 0.00 0.00 0.00 67 1015.1
20260903085233 81 206 2.0 10.0 0.00 0.00 0.00 67 1014.8
20260903084730 81 194 2.0 3.0 0.00 0.00 0.00 67 1015.0
20260903084225 81 140 2.0 8.0 0.00 0.00 0.00 66 1014.9
20260903083721 82 164 3.0 4.0 0.00 0.00 0.00 66 1014.8
20260903083215 82 92 1.0 2.0 0.00 0.00 0.00 66 1015.0
20260903082709 82 175 2.0 4.0 0.00 0.00 0.00 66 1015.1
20260903082205 82 225 2.0 3.0 0.00 0.00 0.00 65 1015.0
20260903081705 82 163 4.0 6.0 0.00 0.00 0.00 65 1015.2
20260903081201 82 146 0.0 3.0 0.00 0.00 0.00 65 1015.1
20260903080657 82 261 1.0 2.0 0.00 0.00 0.00 64 1015.0
20260903080154 82 162 1.0 4.0 0.00 0.00 0.00 64 1014.9
20260903075653 83 156 2.0 7.0 0.00 0.00 0.00 63 1014.8
20260903075148 83 188 2.0 7.0 0.00 0.00 0.00 63 1014.9
20260903074647 83 207 2.0 4.0 0.00 0.00 0.00 63 1014.9
20260903074143 83 180 5.0 9.0 0.00 0.00 0.00 62 1015.0
20260903073638 83 196 5.0 7.0 0.00 0.00 0.00 62 1015.0
20260903073133 84 229 2.0 3.0 0.00 0.00 0.00 62 1015.0
20260903072629 84 349 1.0 4.0 0.00 0.00 0.00 61 1015.1
20260903072125 84 205 3.0 7.0 0.00 0.00 0.00 61 1015.0
20260903071622 84 168 2.0 2.0 0.00 0.00 0.00 61 1014.9
20260903071117 84 204 3.0 4.0 0.00 0.00 0.00 61 1014.9
20260903070611 84 62 1.0 6.0 0.00 0.00 0.00 61 1014.9
20260903070107 84 154 1.0 4.0 0.00 0.00 0.00 60 1015.1
20260903065606 85 353 2.0 6.0 0.00 0.00 0.00 60 1014.8
20260903065101 85 176 4.0 11.0 0.00 0.00 0.00 59 1014.8
20260903064601 85 148 2.0 11.0 0.00 0.00 0.00 59 1014.9
20260903064056 85 178 4.0 6.0 0.00 0.00 0.00 58 1014.9
20260903063551 85 112 3.0 10.0 0.00 0.00 0.00 58 1015.0
20260903063046 85 252 2.0 9.0 0.00 0.00 0.00 57 1014.9
20260903062542 86 195 6.0 11.0 0.00 0.00 0.00 57 1014.9
20260903062037 86 160 1.0 3.0 0.00 0.00 0.00 56 1014.9
20260903061532 86 134 2.0 13.0 0.00 0.00 0.00 56 1014.9
20260903061032 86 166 1.0 3.0 0.00 0.00 0.00 56 1014.9
20260903060532 86 178 2.0 7.0 0.00 0.00 0.00 56 1014.9
20260903060027 86 218 2.0 4.0 0.00 0.00 0.00 56 1014.9
20260903055524 86 196 2.0 4.0 0.00 0.00 0.00 55 1014.8
20260903055023 87 209 4.0 8.0 0.00 0.00 0.00 55 1014.7
20260903054519 87 212 5.0 9.0 0.00 0.00 0.00 55 1014.8
20260903054015 87 170 1.0 13.0 0.00 0.00 0.00 55 1014.7
20260903053514 87 208 2.0 9.0 0.00 0.00 0.00 55 1014.8
20260903053011 87 221 2.0 4.0 0.00 0.00 0.00 54 1014.8
20260903052506 87 176 7.0 15.0 0.00 0.00 0.00 53 1014.9
20260903052001 87 201 4.0 9.0 0.00 0.00 0.00 53 1014.6
20260903051456 87 249 2.0 4.0 0.00 0.00 0.00 52 1014.8
20260903050952 87 197 4.0 7.0 0.00 0.00 0.00 52 1014.7
20260903050451 87 185 2.0 4.0 0.00 0.00 0.00 51 1014.8
20260903045946 88 129 0.0 3.0 0.00 0.00 0.00 51 1014.6
20260903045441 88 172 2.0 4.0 0.00 0.00 0.00 50 1014.3
20260903044938 88 208 4.0 7.0 0.00 0.00 0.00 50 1014.7
20260903044433 88 200 2.0 4.0 0.00 0.00 0.00 50 1014.4
20260903043929 88 161 1.0 4.0 0.00 0.00 0.00 49 1014.4
20260903043425 88 195 1.0 4.0 0.00 0.00 0.00 49 1014.7
20260903042923 88 174 0.0 1.0 0.00 0.00 0.00 49 1014.6
20260903042419 89 166 1.0 7.0 0.00 0.00 0.00 49 1014.6
20260903041914 89 190 0.0 4.0 0.00 0.00 0.00 48 1014.7
20260903041410 89 213 1.0 4.0 0.00 0.00 0.00 48 1014.6
20260903040906 89 175 3.0 9.0 0.00 0.00 0.00 47 1014.6
20260903040405 89 177 2.0 7.0 0.00 0.00 0.00 47 1014.7
20260903035901 89 68 1.0 7.0 0.00 0.00 0.00 47 1014.4
20260903035356 89 173 1.0 4.0 0.00 0.00 0.00 47 1014.4